Location: ????????
(60.4333°N, 46.4710°E)
Time: 19:55:25
(UTC+00:00)

SL-16 R/B - Pass Details

Date: 25 November 2020
Orbit: 841 x 848 km, 71.0° (Epoch: 16 January)

Event Time Altitude Azimuth Distance (km) Brightness Sun altitude
Rises 14:55:09 0° 183° (S) 3,390 5.5 -19.8°
Reaches altitude 10° 14:57:46 10° 174° (S) 2,458 4.6 -20.1°
Enters shadow 15:02:25 34° 119° (ESE) 1,359 2.8 -20.7°
